PRIVATE WETTERSTATION BILLIGHEIM-ALLFELD                       ZURCK
Wetterdaten: Dienstag, 09.08.2016
Datum Zeit Temp. A. Temp. A. min Temp. A. max Feuchte A. Luftdruck Regen Wind Richtung Richtung Sonnenschein ET Solar Taupunkt Windchill Windben Empfang
09.08.2016 00:00 15,6 C 15,6 C 15,8 C 84 % 1018,7 hPa 0,0 l/m 0,0 km/h (0 Bft) N 0 0 min 0,025 mm 0 W/m 12,9 C 15,6 C 0,0 km/h (0 Bft) 100 %
09.08.2016 00:10 15,3 C 15,3 C 15,6 C 85 % 1018,7 hPa 0,0 l/m 0,0 km/h (0 Bft) N 0 0 min 0,000 mm 0 W/m 12,8 C 15,3 C 0,0 km/h (0 Bft) 100 %
09.08.2016 00:20 15,2 C 15,2 C 15,3 C 86 % 1018,7 hPa 0,0 l/m 0,0 km/h (0 Bft) N 0 0 min 0,000 mm 0 W/m 12,9 C 15,2 C 0,0 km/h (0 Bft) 100 %
09.08.2016 00:30 15,1 C 15,1 C 15,2 C 86 % 1018,8 hPa 0,0 l/m 0,0 km/h (0 Bft) N 0 0 min 0,000 mm 0 W/m 12,8 C 15,1 C 0,0 km/h (0 Bft) 100 %
09.08.2016 00:40 15,1 C 15,1 C 15,1 C 86 % 1018,9 hPa 0,0 l/m 0,0 km/h (0 Bft) N 0 0 min 0,000 mm 0 W/m 12,8 C 15,1 C 0,0 km/h (0 Bft) 100 %
09.08.2016 00:50 15,1 C 15,1 C 15,1 C 87 % 1019,1 hPa 0,0 l/m 0,0 km/h (0 Bft) N 0 0 min 0,000 mm 0 W/m 13,0 C 15,1 C 0,0 km/h (0 Bft) 100 %
09.08.2016 01:00 14,9 C 14,9 C 15,1 C 87 % 1019,0 hPa 0,0 l/m 0,0 km/h (0 Bft) N 0 0 min 0,000 mm 0 W/m 12,8 C 14,9 C 0,0 km/h (0 Bft) 100 %
09.08.2016 01:10 14,9 C 14,9 C 15,0 C 88 % 1019,0 hPa 0,0 l/m 0,0 km/h (0 Bft) N 0 0 min 0,000 mm 0 W/m 12,9 C 14,9 C 0,0 km/h (0 Bft) 100 %
09.08.2016 01:20 15,0 C 14,9 C 15,0 C 88 % 1019,0 hPa 0,0 l/m 0,0 km/h (0 Bft) N 0 0 min 0,000 mm 0 W/m 13,0 C 15,0 C 0,0 km/h (0 Bft) 100 %
09.08.2016 01:30 15,1 C 15,0 C 15,1 C 88 % 1019,0 hPa 0,0 l/m 0,0 km/h (0 Bft) N 0 0 min 0,000 mm 0 W/m 13,1 C 15,1 C 0,0 km/h (0 Bft) 99 %
09.08.2016 01:40 15,1 C 15,1 C 15,1 C 87 % 1019,0 hPa 0,0 l/m 0,0 km/h (0 Bft) N 0 0 min 0,000 mm 0 W/m 13,0 C 15,1 C 0,0 km/h (0 Bft) 88 %
09.08.2016 01:50 15,2 C 15,1 C 15,2 C 87 % 1018,9 hPa 0,0 l/m 0,0 km/h (0 Bft) N 0 0 min 0,000 mm 0 W/m 13,0 C 15,2 C 0,0 km/h (0 Bft) 100 %
09.08.2016 02:00 15,3 C 15,1 C 15,3 C 87 % 1018,9 hPa 0,0 l/m 0,0 km/h (0 Bft) N 0 0 min 0,000 mm 0 W/m 13,1 C 15,3 C 0,0 km/h (0 Bft) 100 %
09.08.2016 02:10 15,4 C 15,3 C 15,4 C 86 % 1018,7 hPa 0,0 l/m 0,0 km/h (0 Bft) N 0 0 min 0,000 mm 0 W/m 13,1 C 15,4 C 0,0 km/h (0 Bft) 100 %
09.08.2016 02:20 15,4 C 15,3 C 15,4 C 86 % 1018,7 hPa 0,0 l/m 0,0 km/h (0 Bft) N 0 0 min 0,000 mm 0 W/m 13,1 C 15,4 C 0,0 km/h (0 Bft) 100 %
09.08.2016 02:30 15,4 C 15,3 C 15,4 C 85 % 1018,7 hPa 0,0 l/m 0,0 km/h (0 Bft) N 0 0 min 0,000 mm 0 W/m 12,9 C 15,4 C 0,0 km/h (0 Bft) 100 %
09.08.2016 02:40 15,4 C 15,3 C 15,4 C 85 % 1018,6 hPa 0,0 l/m 0,0 km/h (0 Bft) N 360 0 min 0,000 mm 0 W/m 12,9 C 15,4 C 3,2 km/h (1 Bft) 100 %
09.08.2016 02:50 15,4 C 15,4 C 15,4 C 85 % 1018,6 hPa 0,0 l/m 0,0 km/h (0 Bft) N 360 0 min 0,000 mm 0 W/m 12,9 C 15,4 C 3,2 km/h (1 Bft) 100 %
09.08.2016 03:00 15,5 C 15,4 C 15,5 C 85 % 1018,5 hPa 0,0 l/m 0,0 km/h (0 Bft) N 0 0 min 0,000 mm 0 W/m 13,0 C 15,5 C 0,0 km/h (0 Bft) 100 %
09.08.2016 03:10 15,6 C 15,5 C 15,6 C 85 % 1018,4 hPa 0,0 l/m 0,0 km/h (0 Bft) N 360 0 min 0,000 mm 0 W/m 13,1 C 15,6 C 3,2 km/h (1 Bft) 100 %
09.08.2016 03:20 15,5 C 15,5 C 15,6 C 85 % 1018,4 hPa 0,0 l/m 0,0 km/h (0 Bft) N 0 0 min 0,000 mm 0 W/m 13,0 C 15,5 C 0,0 km/h (0 Bft) 100 %
09.08.2016 03:30 15,4 C 15,4 C 15,5 C 85 % 1018,3 hPa 0,0 l/m 0,0 km/h (0 Bft) N 0 0 min 0,000 mm 0 W/m 12,9 C 15,4 C 0,0 km/h (0 Bft) 100 %
09.08.2016 03:40 15,4 C 15,4 C 15,4 C 86 % 1018,2 hPa 0,0 l/m 0,0 km/h (0 Bft) N 0 0 min 0,000 mm 0 W/m 13,1 C 15,4 C 0,0 km/h (0 Bft) 100 %
09.08.2016 03:50 15,3 C 15,3 C 15,4 C 86 % 1018,3 hPa 0,0 l/m 0,0 km/h (0 Bft) N 0 0 min 0,000 mm 0 W/m 13,0 C 15,3 C 0,0 km/h (0 Bft) 100 %
09.08.2016 04:00 15,2 C 15,2 C 15,3 C 87 % 1018,2 hPa 0,0 l/m 0,0 km/h (0 Bft) N 0 0 min 0,000 mm 0 W/m 13,0 C 15,2 C 0,0 km/h (0 Bft) 100 %
09.08.2016 04:10 15,1 C 15,1 C 15,2 C 87 % 1017,9 hPa 0,0 l/m 0,0 km/h (0 Bft) N 0 0 min 0,000 mm 0 W/m 13,0 C 15,1 C 0,0 km/h (0 Bft) 100 %
09.08.2016 04:20 15,1 C 15,1 C 15,1 C 87 % 1018,0 hPa 0,0 l/m 0,0 km/h (0 Bft) N 0 0 min 0,000 mm 0 W/m 13,0 C 15,1 C 0,0 km/h (0 Bft) 100 %
09.08.2016 04:30 15,1 C 15,1 C 15,1 C 88 % 1018,2 hPa 0,0 l/m 0,0 km/h (0 Bft) N 0 0 min 0,000 mm 0 W/m 13,1 C 15,1 C 0,0 km/h (0 Bft) 100 %
09.08.2016 04:40 15,1 C 15,1 C 15,1 C 88 % 1018,2 hPa 0,0 l/m 0,0 km/h (0 Bft) N 0 0 min 0,000 mm 0 W/m 13,1 C 15,1 C 0,0 km/h (0 Bft) 100 %
09.08.2016 04:50 14,9 C 14,9 C 15,1 C 88 % 1018,3 hPa 0,0 l/m 0,0 km/h (0 Bft) N 0 0 min 0,000 mm 0 W/m 12,9 C 14,9 C 0,0 km/h (0 Bft) 100 %
09.08.2016 05:00 14,8 C 14,8 C 14,9 C 88 % 1018,3 hPa 0,0 l/m 0,0 km/h (0 Bft) N 0 0 min 0,000 mm 0 W/m 12,8 C 14,8 C 0,0 km/h (0 Bft) 100 %
09.08.2016 05:10 14,8 C 14,8 C 14,8 C 88 % 1018,3 hPa 0,0 l/m 0,0 km/h (0 Bft) N 360 0 min 0,000 mm 0 W/m 12,8 C 14,8 C 1,6 km/h (1 Bft) 100 %
09.08.2016 05:20 14,9 C 14,8 C 14,9 C 88 % 1018,2 hPa 0,0 l/m 0,0 km/h (0 Bft) N 0 0 min 0,000 mm 0 W/m 12,9 C 14,9 C 0,0 km/h (0 Bft) 100 %
09.08.2016 05:30 14,9 C 14,9 C 14,9 C 88 % 1018,3 hPa 0,0 l/m 0,0 km/h (0 Bft) N 0 0 min 0,000 mm 0 W/m 12,9 C 14,9 C 0,0 km/h (0 Bft) 100 %
09.08.2016 05:40 14,9 C 14,9 C 14,9 C 88 % 1018,3 hPa 0,0 l/m 0,0 km/h (0 Bft) N 0 0 min 0,000 mm 0 W/m 12,9 C 14,9 C 0,0 km/h (0 Bft) 100 %
09.08.2016 05:50 14,9 C 14,9 C 14,9 C 88 % 1018,3 hPa 0,0 l/m 0,0 km/h (0 Bft) N 0 0 min 0,000 mm 0 W/m 12,9 C 14,9 C 0,0 km/h (0 Bft) 100 %
09.08.2016 06:00 14,9 C 14,9 C 14,9 C 88 % 1018,3 hPa 0,0 l/m 0,0 km/h (0 Bft) N 0 0 min 0,000 mm 0 W/m 12,9 C 14,9 C 0,0 km/h (0 Bft) 100 %
09.08.2016 06:10 14,9 C 14,9 C 14,9 C 88 % 1018,4 hPa 0,0 l/m 0,0 km/h (0 Bft) N 0 0 min 0,000 mm 0 W/m 12,9 C 14,9 C 0,0 km/h (0 Bft) 100 %
09.08.2016 06:20 14,9 C 14,9 C 14,9 C 88 % 1018,3 hPa 0,0 l/m 0,0 km/h (0 Bft) N 0 0 min 0,000 mm 0 W/m 12,9 C 14,9 C 0,0 km/h (0 Bft) 100 %
09.08.2016 06:30 14,8 C 14,8 C 14,9 C 88 % 1018,4 hPa 0,0 l/m 0,0 km/h (0 Bft) N 0 0 min 0,000 mm 0 W/m 12,8 C 14,8 C 0,0 km/h (0 Bft) 100 %
09.08.2016 06:40 14,8 C 14,8 C 14,8 C 88 % 1018,3 hPa 0,0 l/m 0,0 km/h (0 Bft) N 0 0 min 0,000 mm 0 W/m 12,8 C 14,8 C 0,0 km/h (0 Bft) 100 %
09.08.2016 06:50 14,8 C 14,8 C 14,8 C 88 % 1018,3 hPa 0,0 l/m 0,0 km/h (0 Bft) N 0 0 min 0,000 mm 7 W/m 12,8 C 14,8 C 0,0 km/h (0 Bft) 91 %
09.08.2016 07:00 14,8 C 14,8 C 14,8 C 88 % 1018,4 hPa 0,0 l/m 0,0 km/h (0 Bft) N 0 0 min 0,000 mm 25 W/m 12,8 C 14,8 C 0,0 km/h (0 Bft) 100 %
09.08.2016 07:10 14,8 C 14,8 C 14,8 C 88 % 1018,6 hPa 0,0 l/m 0,0 km/h (0 Bft) N 360 0 min 0,000 mm 35 W/m 12,8 C 14,8 C 3,2 km/h (1 Bft) 100 %
09.08.2016 07:20 14,9 C 14,8 C 14,9 C 89 % 1018,6 hPa 0,0 l/m 1,6 km/h (1 Bft) N 360 0 min 0,000 mm 40 W/m 13,1 C 14,9 C 4,8 km/h (1 Bft) 100 %
09.08.2016 07:30 14,9 C 14,9 C 14,9 C 89 % 1018,6 hPa 0,0 l/m 0,0 km/h (0 Bft) NO 45 0 min 0,000 mm 51 W/m 13,1 C 14,9 C 3,2 km/h (1 Bft) 100 %
09.08.2016 07:40 14,9 C 14,9 C 14,9 C 89 % 1018,5 hPa 0,0 l/m 0,0 km/h (0 Bft) NO 45 0 min 0,000 mm 60 W/m 13,1 C 14,9 C 3,2 km/h (1 Bft) 100 %
09.08.2016 07:50 15,0 C 14,9 C 15,0 C 89 % 1018,7 hPa 0,0 l/m 1,6 km/h (1 Bft) NO 45 0 min 0,000 mm 54 W/m 13,2 C 15,0 C 3,2 km/h (1 Bft) 100 %
09.08.2016 08:00 14,9 C 14,9 C 15,0 C 89 % 1018,8 hPa 0,0 l/m 0,0 km/h (0 Bft) NO 45 0 min 0,025 mm 35 W/m 13,1 C 14,9 C 1,6 km/h (1 Bft) 100 %
09.08.2016 08:10 14,9 C 14,9 C 14,9 C 89 % 1018,9 hPa 0,0 l/m 0,0 km/h (0 Bft) NO 45 0 min 0,000 mm 30 W/m 13,1 C 14,9 C 1,6 km/h (1 Bft) 100 %
09.08.2016 08:20 14,9 C 14,9 C 14,9 C 89 % 1018,9 hPa 0,2 l/m 1,6 km/h (1 Bft) N 360 0 min 0,000 mm 14 W/m 13,1 C 14,9 C 4,8 km/h (1 Bft) 100 %
09.08.2016 08:30 14,9 C 14,9 C 14,9 C 89 % 1019,0 hPa 0,4 l/m 0,0 km/h (0 Bft) N-NW 337 0 min 0,000 mm 30 W/m 13,1 C 14,9 C 6,4 km/h (2 Bft) 100 %
09.08.2016 08:40 14,8 C 14,8 C 14,9 C 90 % 1019,1 hPa 0,2 l/m 3,2 km/h (1 Bft) W-NW 292 0 min 0,000 mm 44 W/m 13,2 C 14,8 C 6,4 km/h (2 Bft) 100 %
09.08.2016 08:50 14,8 C 14,8 C 14,8 C 90 % 1019,1 hPa 0,2 l/m 4,8 km/h (1 Bft) W-NW 292 0 min 0,000 mm 53 W/m 13,2 C 14,8 C 11,3 km/h (2 Bft) 100 %
09.08.2016 09:00 14,8 C 14,8 C 14,8 C 90 % 1019,2 hPa 0,2 l/m 3,2 km/h (1 Bft) W-NW 292 0 min 0,025 mm 62 W/m 13,2 C 14,8 C 6,4 km/h (2 Bft) 100 %
09.08.2016 09:10 14,8 C 14,7 C 14,8 C 90 % 1019,3 hPa 0,2 l/m 4,8 km/h (1 Bft) NW 315 0 min 0,000 mm 44 W/m 13,2 C 14,8 C 8,0 km/h (2 Bft) 100 %
09.08.2016 09:20 14,7 C 14,7 C 14,8 C 90 % 1019,3 hPa 0,2 l/m 4,8 km/h (1 Bft) NW 315 0 min 0,000 mm 39 W/m 13,1 C 14,7 C 9,7 km/h (2 Bft) 100 %
09.08.2016 09:30 14,6 C 14,6 C 14,7 C 90 % 1019,6 hPa 0,2 l/m 4,8 km/h (1 Bft) NW 315 0 min 0,000 mm 58 W/m 13,0 C 14,6 C 17,7 km/h (3 Bft) 100 %
09.08.2016 09:40 14,1 C 14,1 C 14,6 C 90 % 1019,4 hPa 0,2 l/m 1,6 km/h (1 Bft) N-NW 337 0 min 0,000 mm 102 W/m 12,5 C 14,1 C 11,3 km/h (2 Bft) 100 %
09.08.2016 09:50 14,1 C 14,1 C 14,1 C 90 % 1019,6 hPa 0,0 l/m 0,0 km/h (0 Bft) N-NW 337 0 min 0,000 mm 142 W/m 12,5 C 14,1 C 1,6 km/h (1 Bft) 100 %
09.08.2016 10:00 14,1 C 14,1 C 14,1 C 90 % 1019,7 hPa 0,0 l/m 0,0 km/h (0 Bft) N 0 10 min 0,051 mm 179 W/m 12,5 C 14,1 C 0,0 km/h (0 Bft) 100 %
09.08.2016 10:10 14,2 C 14,1 C 14,2 C 90 % 1019,6 hPa 0,0 l/m 0,0 km/h (0 Bft) N-NW 337 0 min 0,000 mm 132 W/m 12,6 C 14,2 C 1,6 km/h (1 Bft) 100 %
09.08.2016 10:20 14,2 C 14,2 C 14,2 C 90 % 1019,7 hPa 0,0 l/m 0,0 km/h (0 Bft) N 0 0 min 0,000 mm 97 W/m 12,6 C 14,2 C 0,0 km/h (0 Bft) 100 %
09.08.2016 10:30 14,3 C 14,2 C 14,3 C 90 % 1019,8 hPa 0,4 l/m 0,0 km/h (0 Bft) N 0 10 min 0,000 mm 160 W/m 12,7 C 14,3 C 0,0 km/h (0 Bft) 99 %
09.08.2016 10:40 14,3 C 14,3 C 14,3 C 90 % 1019,5 hPa 0,0 l/m 0,0 km/h (0 Bft) N-NW 337 10 min 0,000 mm 155 W/m 12,7 C 14,3 C 1,6 km/h (1 Bft) 99 %
09.08.2016 10:50 14,4 C 14,3 C 14,4 C 90 % 1019,7 hPa 0,0 l/m 0,0 km/h (0 Bft) N 0 0 min 0,000 mm 137 W/m 12,8 C 14,4 C 0,0 km/h (0 Bft) 100 %
09.08.2016 11:00 14,6 C 14,4 C 14,6 C 90 % 1019,7 hPa 0,0 l/m 0,0 km/h (0 Bft) N 0 10 min 0,076 mm 519 W/m 13,0 C 14,6 C 0,0 km/h (0 Bft) 100 %
09.08.2016 11:10 14,9 C 14,6 C 14,9 C 90 % 1019,7 hPa 0,0 l/m 0,0 km/h (0 Bft) N 0 10 min 0,000 mm 541 W/m 13,3 C 14,9 C 0,0 km/h (0 Bft) 100 %
09.08.2016 11:20 15,8 C 14,9 C 15,8 C 90 % 1019,6 hPa 0,0 l/m 0,0 km/h (0 Bft) N-NW 337 10 min 0,000 mm 884 W/m 14,2 C 15,8 C 1,6 km/h (1 Bft) 100 %
09.08.2016 11:30 16,9 C 15,9 C 16,9 C 90 % 1019,7 hPa 0,0 l/m 0,0 km/h (0 Bft) N 0 10 min 0,000 mm 851 W/m 15,2 C 16,9 C 0,0 km/h (0 Bft) 100 %
09.08.2016 11:40 17,3 C 16,9 C 17,3 C 89 % 1019,7 hPa 0,0 l/m 0,0 km/h (0 Bft) W 270 10 min 0,000 mm 1067 W/m 15,5 C 17,3 C 1,6 km/h (1 Bft) 99 %
09.08.2016 11:50 17,2 C 17,1 C 17,4 C 82 % 1019,7 hPa 0,0 l/m 0,0 km/h (0 Bft) SW 225 10 min 0,000 mm 1032 W/m 14,1 C 17,2 C 4,8 km/h (1 Bft) 100 %
09.08.2016 12:00 17,1 C 17,1 C 17,1 C 87 % 1019,6 hPa 0,0 l/m 0,0 km/h (0 Bft) SW 225 10 min 0,305 mm 378 W/m 14,9 C 17,1 C 4,8 km/h (1 Bft) 100 %
09.08.2016 12:10 17,6 C 17,1 C 17,6 C 84 % 1019,6 hPa 0,0 l/m 3,2 km/h (1 Bft) SW 225 10 min 0,000 mm 993 W/m 14,9 C 17,6 C 14,5 km/h (3 Bft) 100 %
09.08.2016 12:20 18,2 C 17,6 C 18,2 C 80 % 1019,5 hPa 0,0 l/m 4,8 km/h (1 Bft) W-SW 247 10 min 0,000 mm 967 W/m 14,7 C 18,2 C 24,1 km/h (4 Bft) 100 %
09.08.2016 12:30 18,3 C 18,2 C 18,3 C 76 % 1019,6 hPa 0,0 l/m 4,8 km/h (1 Bft) W-NW 292 10 min 0,000 mm 626 W/m 14,0 C 18,3 C 16,1 km/h (3 Bft) 91 %
09.08.2016 12:40 18,7 C 18,4 C 18,7 C 73 % 1019,5 hPa 0,0 l/m 6,4 km/h (2 Bft) W-NW 292 10 min 0,000 mm 1150 W/m 13,8 C 18,7 C 17,7 km/h (3 Bft) 100 %
09.08.2016 12:50 19,2 C 18,7 C 19,2 C 71 % 1019,5 hPa 0,0 l/m 4,8 km/h (1 Bft) W-NW 292 10 min 0,000 mm 1011 W/m 13,8 C 19,2 C 16,1 km/h (3 Bft) 100 %
09.08.2016 13:00 19,5 C 19,2 C 19,5 C 73 % 1019,4 hPa 0,0 l/m 3,2 km/h (1 Bft) W 270 10 min 0,432 mm 1044 W/m 14,5 C 19,5 C 14,5 km/h (3 Bft) 100 %
09.08.2016 13:10 20,0 C 19,5 C 20,0 C 71 % 1019,4 hPa 0,0 l/m 4,8 km/h (1 Bft) S-SW 202 10 min 0,000 mm 1090 W/m 14,6 C 20,0 C 17,7 km/h (3 Bft) 99 %
09.08.2016 13:20 19,9 C 19,9 C 20,1 C 67 % 1019,3 hPa 0,0 l/m 6,4 km/h (2 Bft) NW 315 10 min 0,000 mm 1069 W/m 13,6 C 19,9 C 19,3 km/h (3 Bft) 100 %
09.08.2016 13:30 19,9 C 19,8 C 19,9 C 65 % 1019,4 hPa 0,0 l/m 6,4 km/h (2 Bft) NW 315 10 min 0,000 mm 949 W/m 13,1 C 19,9 C 14,5 km/h (3 Bft) 99 %
09.08.2016 13:40 20,0 C 19,9 C 20,1 C 61 % 1019,2 hPa 0,0 l/m 4,8 km/h (1 Bft) W-NW 292 10 min 0,000 mm 849 W/m 12,2 C 20,0 C 16,1 km/h (3 Bft) 100 %
09.08.2016 13:50 19,9 C 19,9 C 20,0 C 63 % 1019,2 hPa 0,0 l/m 3,2 km/h (1 Bft) W-NW 292 10 min 0,000 mm 923 W/m 12,6 C 19,9 C 11,3 km/h (2 Bft) 100 %
09.08.2016 14:00 20,1 C 19,9 C 20,1 C 62 % 1019,2 hPa 0,0 l/m 3,2 km/h (1 Bft) W-SW 247 10 min 0,457 mm 947 W/m 12,6 C 20,1 C 12,9 km/h (3 Bft) 100 %
09.08.2016 14:10 20,3 C 20,1 C 20,3 C 58 % 1019,0 hPa 0,0 l/m 3,2 km/h (1 Bft) W-SW 247 10 min 0,000 mm 1039 W/m 11,8 C 20,3 C 16,1 km/h (3 Bft) 100 %
09.08.2016 14:20 20,1 C 20,1 C 20,3 C 60 % 1018,9 hPa 0,0 l/m 4,8 km/h (1 Bft) W-NW 292 10 min 0,000 mm 304 W/m 12,1 C 20,1 C 17,7 km/h (3 Bft) 100 %
09.08.2016 14:30 20,5 C 20,1 C 20,5 C 60 % 1019,0 hPa 0,0 l/m 9,7 km/h (2 Bft) W-NW 292 10 min 0,000 mm 1025 W/m 12,5 C 19,3 C 19,3 km/h (3 Bft) 100 %
09.08.2016 14:40 21,1 C 20,5 C 21,1 C 60 % 1019,0 hPa 0,0 l/m 11,3 km/h (2 Bft) W-NW 292 10 min 0,000 mm 1072 W/m 13,0 C 19,5 C 22,5 km/h (4 Bft) 100 %
09.08.2016 14:50 20,9 C 20,9 C 21,1 C 61 % 1019,0 hPa 0,0 l/m 8,0 km/h (2 Bft) W-NW 292 10 min 0,000 mm 499 W/m 13,1 C 20,3 C 19,3 km/h (3 Bft) 100 %
09.08.2016 15:00 20,7 C 20,7 C 20,9 C 59 % 1019,0 hPa 0,0 l/m 8,0 km/h (2 Bft) W-NW 292 10 min 0,381 mm 622 W/m 12,4 C 20,1 C 17,7 km/h (3 Bft) 100 %
09.08.2016 15:10 20,6 C 20,6 C 20,7 C 55 % 1019,0 hPa 0,0 l/m 6,4 km/h (2 Bft) W-NW 292 10 min 0,000 mm 538 W/m 11,2 C 20,6 C 16,1 km/h (3 Bft) 100 %
09.08.2016 15:20 20,7 C 20,6 C 20,7 C 56 % 1018,9 hPa 0,0 l/m 4,8 km/h (1 Bft) W-NW 292 10 min 0,000 mm 522 W/m 11,6 C 20,7 C 14,5 km/h (3 Bft) 100 %
09.08.2016 15:30 20,8 C 20,7 C 20,8 C 57 % 1018,8 hPa 0,0 l/m 3,2 km/h (1 Bft) W-NW 292 10 min 0,000 mm 345 W/m 12,0 C 20,8 C 20,9 km/h (4 Bft) 100 %
09.08.2016 15:40 21,1 C 20,8 C 21,1 C 59 % 1018,6 hPa 0,0 l/m 8,0 km/h (2 Bft) NW 315 10 min 0,000 mm 253 W/m 12,8 C 20,5 C 17,7 km/h (3 Bft) 100 %
09.08.2016 15:50 21,3 C 21,1 C 21,3 C 55 % 1018,6 hPa 0,0 l/m 6,4 km/h (2 Bft) W-SW 247 10 min 0,000 mm 199 W/m 11,9 C 21,3 C 14,5 km/h (3 Bft) 100 %
09.08.2016 16:00 21,2 C 21,2 C 21,3 C 55 % 1018,6 hPa 0,0 l/m 6,4 km/h (2 Bft) W-SW 247 10 min 0,203 mm 230 W/m 11,8 C 21,2 C 22,5 km/h (4 Bft) 98 %
09.08.2016 16:20 21,3 C 21,2 C 21,4 C 49 % 1018,3 hPa 0,0 l/m 4,1 km/h (1 Bft) S-SW 208 0 min 0,000 mm 149 W/m 10,1 C 21,3 C 11,3 km/h (2 Bft) 99 %
09.08.2016 16:30 21,3 C 21,3 C 21,4 C 52 % 1018,3 hPa 0,0 l/m 3,4 km/h (1 Bft) S-SW 199 0 min 0,000 mm 151 W/m 11,0 C 21,3 C 11,3 km/h (2 Bft) 99 %
09.08.2016 16:40 21,2 C 21,2 C 21,3 C 53 % 1018,2 hPa 0,0 l/m 4,1 km/h (1 Bft) SW 227 10 min 0,000 mm 221 W/m 11,2 C 21,2 C 19,3 km/h (3 Bft) 100 %
09.08.2016 16:50 21,3 C 21,2 C 21,3 C 52 % 1018,0 hPa 0,0 l/m 6,9 km/h (2 Bft) W 279 10 min 0,000 mm 179 W/m 11,0 C 21,1 C 16,1 km/h (3 Bft) 100 %
09.08.2016 17:00 21,6 C 21,3 C 21,6 C 51 % 1017,9 hPa 0,0 l/m 6,7 km/h (2 Bft) W-SW 246 0 min 0,154 mm 125 W/m 11,0 C 21,5 C 17,7 km/h (3 Bft) 100 %
09.08.2016 17:10 21,1 C 21,1 C 21,6 C 52 % 1018,0 hPa 0,0 l/m 9,1 km/h (2 Bft) NW 319 10 min 0,000 mm 204 W/m 10,9 C 20,1 C 24,1 km/h (4 Bft) 100 %
09.08.2016 17:20 20,4 C 20,4 C 21,1 C 58 % 1018,1 hPa 0,0 l/m 12,7 km/h (3 Bft) W-NW 289 10 min 0,000 mm 183 W/m 11,9 C 18,3 C 25,7 km/h (4 Bft) 100 %
09.08.2016 17:30 20,1 C 20,1 C 20,4 C 59 % 1018,2 hPa 0,0 l/m 11,4 km/h (2 Bft) NW 324 10 min 0,000 mm 192 W/m 11,8 C 18,3 C 27,4 km/h (4 Bft) 100 %
09.08.2016 17:40 19,8 C 19,8 C 20,1 C 61 % 1018,2 hPa 0,0 l/m 8,1 km/h (2 Bft) N-NW 344 10 min 0,000 mm 214 W/m 12,1 C 19,1 C 22,5 km/h (4 Bft) 100 %
09.08.2016 17:50 19,6 C 19,6 C 19,8 C 61 % 1018,3 hPa 0,0 l/m 9,1 km/h (2 Bft) NW 306 10 min 0,000 mm 158 W/m 11,9 C 18,5 C 25,7 km/h (4 Bft) 100 %
09.08.2016 18:00 19,5 C 19,5 C 19,6 C 60 % 1018,4 hPa 0,0 l/m 6,3 km/h (2 Bft) N-NW 336 10 min 0,177 mm 179 W/m 11,5 C 19,5 C 17,7 km/h (3 Bft) 100 %
09.08.2016 18:10 19,2 C 19,2 C 19,5 C 62 % 1018,4 hPa 0,0 l/m 2,8 km/h (1 Bft) N-NW 337 0 min 0,000 mm 132 W/m 11,7 C 19,2 C 11,3 km/h (2 Bft) 100 %
09.08.2016 18:20 18,8 C 18,8 C 19,2 C 62 % 1018,4 hPa 0,0 l/m 3,9 km/h (1 Bft) N 355 0 min 0,000 mm 132 W/m 11,4 C 18,8 C 14,5 km/h (3 Bft) 100 %
09.08.2016 18:30 18,6 C 18,6 C 18,8 C 62 % 1018,4 hPa 0,0 l/m 3,2 km/h (1 Bft) N-NW 342 0 min 0,000 mm 146 W/m 11,2 C 18,6 C 11,3 km/h (2 Bft) 100 %
09.08.2016 18:40 18,6 C 18,5 C 18,6 C 65 % 1018,4 hPa 0,0 l/m 1,4 km/h (1 Bft) N-NW 335 0 min 0,000 mm 132 W/m 11,9 C 18,6 C 8,0 km/h (2 Bft) 100 %
09.08.2016 18:50 18,6 C 18,5 C 18,6 C 64 % 1018,5 hPa 0,0 l/m 0,6 km/h (0 Bft) N-NW 327 0 min 0,000 mm 118 W/m 11,7 C 18,6 C 8,0 km/h (2 Bft) 99 %
09.08.2016 19:00 18,5 C 18,5 C 18,6 C 64 % 1018,5 hPa 0,0 l/m 1,8 km/h (1 Bft) N 350 0 min 0,102 mm 98 W/m 11,6 C 18,5 C 9,7 km/h (2 Bft) 100 %
09.08.2016 19:10 18,3 C 18,3 C 18,5 C 63 % 1018,6 hPa 0,0 l/m 0,3 km/h (0 Bft) N 350 0 min 0,000 mm 76 W/m 11,1 C 18,3 C 8,0 km/h (2 Bft) 100 %
09.08.2016 19:20 18,2 C 18,1 C 18,3 C 66 % 1018,6 hPa 0,0 l/m 0,0 km/h (0 Bft) N 350 0 min 0,000 mm 58 W/m 11,7 C 18,2 C 0,0 km/h (0 Bft) 99 %
09.08.2016 19:30 17,9 C 17,9 C 18,2 C 66 % 1018,7 hPa 0,0 l/m 0,0 km/h (0 Bft) N 350 0 min 0,000 mm 51 W/m 11,5 C 17,9 C 0,0 km/h (0 Bft) 100 %
09.08.2016 19:40 17,8 C 17,8 C 17,9 C 72 % 1018,7 hPa 0,0 l/m 0,0 km/h (0 Bft) N 350 0 min 0,000 mm 46 W/m 12,7 C 17,8 C 0,0 km/h (0 Bft) 100 %
09.08.2016 19:50 17,6 C 17,6 C 17,8 C 72 % 1018,6 hPa 0,0 l/m 0,0 km/h (0 Bft) N 350 0 min 0,000 mm 35 W/m 12,5 C 17,6 C 0,0 km/h (0 Bft) 100 %
09.08.2016 20:00 17,3 C 17,3 C 17,6 C 71 % 1018,7 hPa 0,0 l/m 0,0 km/h (0 Bft) N 350 0 min 0,025 mm 23 W/m 12,0 C 17,3 C 0,0 km/h (0 Bft) 100 %
09.08.2016 20:10 17,1 C 17,1 C 17,3 C 71 % 1018,8 hPa 0,0 l/m 0,0 km/h (0 Bft) N 350 0 min 0,000 mm 16 W/m 11,8 C 17,1 C 0,0 km/h (0 Bft) 100 %
09.08.2016 20:20 16,8 C 16,8 C 17,1 C 72 % 1018,9 hPa 0,0 l/m 0,0 km/h (0 Bft) N 350 0 min 0,000 mm 9 W/m 11,7 C 16,8 C 0,0 km/h (0 Bft) 100 %
09.08.2016 20:30 16,6 C 16,6 C 16,8 C 73 % 1018,8 hPa 0,0 l/m 0,0 km/h (0 Bft) N 350 0 min 0,000 mm 5 W/m 11,7 C 16,6 C 0,0 km/h (0 Bft) 100 %
09.08.2016 20:40 16,4 C 16,4 C 16,6 C 73 % 1018,8 hPa 0,0 l/m 0,0 km/h (0 Bft) N 350 0 min 0,000 mm 0 W/m 11,5 C 16,4 C 0,0 km/h (0 Bft) 100 %
09.08.2016 20:50 16,3 C 16,3 C 16,4 C 74 % 1018,8 hPa 0,0 l/m 0,0 km/h (0 Bft) N 350 0 min 0,000 mm 0 W/m 11,7 C 16,3 C 0,0 km/h (0 Bft) 100 %
09.08.2016 21:00 16,1 C 16,1 C 16,3 C 75 % 1018,8 hPa 0,0 l/m 0,0 km/h (0 Bft) N 350 0 min 0,000 mm 0 W/m 11,7 C 16,1 C 0,0 km/h (0 Bft) 100 %
09.08.2016 21:10 15,9 C 15,9 C 16,1 C 75 % 1018,8 hPa 0,0 l/m 0,0 km/h (0 Bft) N 0 0 min 0,000 mm 0 W/m 11,5 C 15,9 C 0,0 km/h (0 Bft) 100 %
09.08.2016 21:20 15,7 C 15,7 C 15,9 C 76 % 1018,9 hPa 0,0 l/m 0,0 km/h (0 Bft) N 360 0 min 0,000 mm 0 W/m 11,5 C 15,7 C 1,6 km/h (1 Bft) 100 %
09.08.2016 21:30 15,6 C 15,6 C 15,7 C 78 % 1019,0 hPa 0,0 l/m 0,0 km/h (0 Bft) N 0 0 min 0,000 mm 0 W/m 11,8 C 15,6 C 0,0 km/h (0 Bft) 100 %
09.08.2016 21:40 15,4 C 15,4 C 15,6 C 80 % 1018,9 hPa 0,0 l/m 0,0 km/h (0 Bft) N 0 0 min 0,000 mm 0 W/m 12,0 C 15,4 C 0,0 km/h (0 Bft) 100 %
09.08.2016 21:50 15,3 C 15,3 C 15,4 C 80 % 1018,8 hPa 0,0 l/m 0,0 km/h (0 Bft) N 0 0 min 0,000 mm 0 W/m 11,9 C 15,3 C 0,0 km/h (0 Bft) 100 %
09.08.2016 22:00 15,1 C 15,1 C 15,3 C 79 % 1018,9 hPa 0,0 l/m 0,0 km/h (0 Bft) N 0 0 min 0,025 mm 0 W/m 11,5 C 15,1 C 0,0 km/h (0 Bft) 100 %
09.08.2016 22:10 15,1 C 15,1 C 15,1 C 80 % 1018,9 hPa 0,0 l/m 0,0 km/h (0 Bft) N 0 0 min 0,000 mm 0 W/m 11,7 C 15,1 C 0,0 km/h (0 Bft) 100 %
09.08.2016 22:20 15,0 C 15,0 C 15,1 C 80 % 1018,9 hPa 0,0 l/m 0,0 km/h (0 Bft) N 360 0 min 0,000 mm 0 W/m 11,6 C 15,0 C 1,6 km/h (1 Bft) 100 %
09.08.2016 22:30 14,8 C 14,8 C 15,0 C 80 % 1019,0 hPa 0,0 l/m 0,0 km/h (0 Bft) N 360 0 min 0,000 mm 0 W/m 11,4 C 14,8 C 1,6 km/h (1 Bft) 100 %
09.08.2016 22:40 14,6 C 14,6 C 14,8 C 80 % 1019,1 hPa 0,0 l/m 0,0 km/h (0 Bft) N 0 0 min 0,000 mm 0 W/m 11,2 C 14,6 C 0,0 km/h (0 Bft) 90 %
09.08.2016 22:50 14,6 C 14,6 C 14,6 C 82 % 1019,0 hPa 0,0 l/m 0,0 km/h (0 Bft) N 0 0 min 0,000 mm 0 W/m 11,6 C 14,6 C 0,0 km/h (0 Bft) 100 %
09.08.2016 23:00 14,4 C 14,4 C 14,6 C 82 % 1018,9 hPa 0,0 l/m 1,6 km/h (1 Bft) N 360 0 min 0,025 mm 0 W/m 11,4 C 14,4 C 6,4 km/h (2 Bft) 100 %
09.08.2016 23:10 14,3 C 14,3 C 14,4 C 81 % 1019,0 hPa 0,0 l/m 1,6 km/h (1 Bft) N-NW 337 0 min 0,000 mm 0 W/m 11,1 C 14,3 C 6,4 km/h (2 Bft) 100 %
09.08.2016 23:20 14,2 C 14,2 C 14,3 C 78 % 1019,1 hPa 0,0 l/m 0,0 km/h (0 Bft) N-NW 337 0 min 0,000 mm 0 W/m 10,4 C 14,2 C 1,6 km/h (1 Bft) 100 %
09.08.2016 23:30 14,2 C 14,2 C 14,2 C 77 % 1019,1 hPa 0,0 l/m 3,2 km/h (1 Bft) N-NW 337 0 min 0,000 mm 0 W/m 10,2 C 14,2 C 8,0 km/h (2 Bft) 100 %
09.08.2016 23:40 14,2 C 14,2 C 14,2 C 76 % 1019,0 hPa 0,0 l/m 1,6 km/h (1 Bft) N-NW 337 0 min 0,000 mm 0 W/m 10,0 C 14,2 C 9,7 km/h (2 Bft) 100 %
09.08.2016 23:50 14,2 C 14,2 C 14,2 C 78 % 1018,9 hPa 0,0 l/m 0,0 km/h (0 Bft) N-NW 337 0 min 0,000 mm 0 W/m 10,4 C 14,2 C 1,6 km/h (1 Bft) 100 %
_ Min-Zeit 09:40 09:40 09:50 16:20 04:10 - 00:00 - - - - - 23:40 09:40 00:00 01:40
Minimum _ 14,1 C 14,1 C 14,1 C 49 % 1017,9 hPa - 0,0 km/h (0 Bft) - - - - - 10,0 C 14,1 C 0,0 km/h (0 Bft) 88 %
_ Max-Zeit 17:00 16:30 17:00 08:40 10:30 08:30 17:20 - - 10:00 14:00 12:40 11:40 17:00 17:30 00:00
Maximum _ 21,6 C 21,3 C 21,6 C 90 % 1019,8 hPa 0,4 l/m 12,7 km/h
W-NW (3 Bft)
- - 10 min 0,457 mm 1150 W/m 15,5 C 21,5 C 27,4 km/h
NW (4 Bft)
100 %
Durchschnitt _ 16,6 C 16,6 C 16,7 C 78 % 1018,8 hPa #2,4 l/m 1,9 km/h (1 Bft) W-NW - #7:00 h #2,488 mm 346 W/m 12,5 C 16,6 C 6,1 km/h (2 Bft) 100 %
PRIVATE WETTERSTATION BILLIGHEIM-ALLFELD - www.neckar-odenwald-wetter.de - Holger Sonntag